Regional Weather Roundup
Issued by NWS

Home | Current Version | Previous Version | Graphics & Text | Print | Product List | Glossary On
Versions: 1 2 3 4 5 6 7 8 9 10 11 12 13 14 15 16 17 18 19 20 21 22 23 24 25 26 27 28 29 30 31 32 33 34 35 36 37 38 39 40 41 42 43 44 45 46 47 48 49 50
000
ASUS43 KMKX 200300
RWRWI

WISCONSIN REGIONAL WEATHER ROUNDUP
NATIONAL WEATHER SERVICE MILWAUKEE/SULLIVAN WI
1000 PM CDT THU OCT 19 2017

NOTE: "FAIR" INDICATES FEW OR NO CLOUDS BELOW 12,000 FEET WITH NO
SIGNIFICANT WEATHER AND/OR OBSTRUCTIONS TO VISIBILITY.

WIZ001-002-006>008-014>016-023>028-200400-
NORTHWEST WISCONSIN

CITY           SKY/WX    TMP DP  RH WIND       PRES   REMARKS
SUPERIOR ARPT  CLEAR     45  38  75 CALM      29.91S
ASHLAND        CLEAR     48  36  63 S5        29.94S
HAYWARD        CLEAR     53  36  52 S7        29.96S
SIREN          CLEAR     58  35  41 S7        29.94S
CUMBERLAND     CLEAR     52  34  50 S6        29.97S
RICE LAKE      CLEAR     53  37  54 SE7       29.99S
CHETEK         CLEAR     55  37  51 SE6       29.99R
LADYSMITH      CLEAR     56  35  44 S8        30.01S
EAU CLAIRE     NOT AVBL
MENOMONIE      CLEAR     52  37  57 E6        29.98F
NEW RICHMOND   CLEAR     54  35  47 S6        29.96S
OSCEOLA        CLEAR     57  36  45 SE5       29.97S
$$

WIZ003>005-009-010-017-018-200400-
NORTH CENTRAL WISCONSIN

CITY           SKY/WX    TMP DP  RH WIND       PRES   REMARKS
MANITOWISH WTR CLEAR     51  34  52 S7        30.00S
ARBOR VITAE    CLEAR     57  35  43 S8        30.01S
WOODRUFF       CLEAR     57  35  43 S8        30.01S
RHINELANDER    CLEAR     57  34  41 SW10      30.03S
EAGLE RIVER    CLEAR     51  31  45 CALM      30.02S
LAND O LAKES   CLEAR     53  31  44 CALM      30.02S
PHILLIPS       CLEAR     55  35  47 S7        29.99F
TOMAHAWK       CLEAR     49  34  56 CALM      30.03S
MEDFORD        CLEAR     48  36  62 S8        30.03S
MERRILL        CLEAR     56  35  44 S3        30.05S
$$

WIZ029-030-035-036-043>047-200400-
CENTRAL WISCONSIN

CITY           SKY/WX    TMP DP  RH WIND       PRES   REMARKS
WAUSAU         CLEAR     54  35  48 SE7       30.04S
MOSINEE        CLEAR     50  36  57 S8        30.06S
MARSHFIELD     CLEAR     54  32  43 S6        30.04S
STEVENS POINT  CLEAR     51  34  52 S3        30.06S
WAUPACA        CLEAR     51  37  57 CALM      30.08S
WAUTOMA        CLEAR     49  38  65 CALM      30.08F
WISC RAPIDS    CLEAR     54  36  50 S6        30.07R
CAMP DOUGLAS   NOT AVBL
$$

WIZ011>013-019>022-031-037>040-048>050-200400-
NORTHEAST WISCONSIN

CITY           SKY/WX    TMP DP  RH WIND       PRES   REMARKS
ANTIGO         CLEAR     49  36  61 S8        30.06S
SHAWANO        CLEAR     57  35  43 CALM      30.07R
OCONTO         CLEAR     54  38  54 CALM      30.06S
STURGEON BAY   CLEAR     55  38  52 S10       30.09S
GREEN BAY      CLEAR     51  39  63 S6        30.08S
MANITOWOC      CLEAR     52  36  54 S7        30.11S
APPLETON       PTCLDY    54  30  40 S8        30.07S
CLINTONVILLE   CLEAR     54  36  50 S5        30.07S
OSHKOSH        CLEAR     53  37  54 S9        30.08F
$$

WIZ032>034-041-042-053>061-200400-
SOUTHWEST WISCONSIN

CITY           SKY/WX    TMP DP  RH WIND       PRES   REMARKS
LA CROSSE      CLEAR     58  42  55 S7        30.03S
SPARTA         CLEAR     59  36  43 S6        30.06S
VIROQUA        CLEAR     57  37  46 S7        30.07R
BOSCOBEL       CLEAR     50  42  74 N3        30.07S
PRAIRIE DU CHI CLOUDY    57  35  43 E3        30.06S
PLATTEVILLE    CLOUDY    56  38  50 SE10      30.08F
$$

WIZ056-057-062-063-064-067-068-200400-
SOUTH CENTRAL WISCONSIN

CITY           SKY/WX    TMP DP  RH WIND       PRES   REMARKS
REEDSBURG      CLEAR     52  38  58 CALM      30.08S
BARABOO/DELLS  CLEAR     55  33  42 S5        30.09R
LONE ROCK      CLEAR     49  40  71 E5        30.08S
MINERAL POINT  CLOUDY    55  36  47 SE8       30.09S
MADISON        PTCLDY    56  37  49 S7        30.10S
MIDDLETON      CLEAR     52  37  57 S5        30.10S
WATERTOWN      CLEAR     52  36  54 SE5       30.12R
MONROE         CLOUDY    57  32  38 S9        30.11S
JANESVILLE     CLEAR     52  36  54 SE5       30.12S
$$

WIZ051-052-058>065-066-070>072-200400-
SOUTHEAST WISCONSIN

CITY           SKY/WX    TMP DP  RH WIND       PRES   REMARKS
MILWAUKEE      PTCLDY    55  25  31 S6        30.15S
WAUKESHA       NOT AVBL
MILWAUKEE/TIMM CLEAR     52  21  30 S6        30.14S
RACINE         CLEAR     54  27  35 S7        30.16S
BURLINGTON     CLEAR     48  35  60 CALM      30.14S
KENOSHA        CLEAR     53  26  35 S7        30.15S
FOND DU LAC    CLEAR     53  34  48 S8        30.09F
SHEBOYGAN      CLEAR     46  37  71 S8        30.12R
WEST BEND      CLEAR     50  32  50 S5        30.12F
JUNEAU         CLEAR     53  36  51 SE9       30.12S
$$

LSZ147-162-200400-
LAKE SUPERIOR

STATION/POSITION TIME  TEMP    WIND        PRES    WAVE
                       AIR SEA DIR/SP/G            HT/PER
                 (UTC) (F)     (DEG/KT/KT) (MB)    (FT/S)
W MID LAKE BUOY  0150   56 52              1013.2S   1/ 4
DEVILS ISLAND    0200   63     180/ 10/ 14 1013.0R
SAXON HARBOR     0230   58     190/  4/  6 1013.2S
$$

LMZ867-665-643>646-200400-
LAKE MICHIGAN

STATION/POSITION TIME  TEMP    WIND        PRES    WAVE
                       AIR SEA DIR/SP/G            HT/PER
                 (UTC) (F)     (DEG/KT/KT) (MB)    (FT/S)
S GREEN BAY BUOY 0200   60 58  180/ 12/ 14 1018.0
N MID LAKE BUOY  0150   59 58  210/ 16/ 17 1018.5R   3/ 5
NORTHPORT PIER   0240   55     180/  4/  8 1017.9S
KEWAUNEE LAKESHO 0230   58     210/  7/  9 1018.2S
SHEBOYGAN LAKESH 0200   58     210/ 13/ 15 1019.6F
PORT WASHINGTON  0240   54     240/  4/  6 1021.0S
ATWATER BUOY     0109   57 53  190/ 10/ 12 1020.4F
MILWAUKEE LAKESH 0230   58     200/  9/ 10   N/A
S MID LAKE BUOY  0150   61 61  170/ 12/ 12 1021.4F   1/ 3
KENOSHA   LAKESH 0200   59     190/  9/ 12 1020.7
$$

TC  - TEMPERATURE IN CELSIUS
VSB - VISIBILITY IN STATUTE MILES
WCI - WIND CHILL INDEX
HX  - HEAT INDEX





USA.gov is the U.S. government's official web portal to all federal, state and local government web resources and services.